GW6076 Weather Reports


time (UTC)temp
C
wind
direction
speed
KPH
gust
KPH
rain 1hr
cm
rain 24hr
cm
rain mn
cm
humidity
%
barometer
mb
20260507185925 29 67 8.0 8.0 0.00 0.00 0.00 44 1017.2
20260507185422 28 42 4.8 6.4 0.00 0.00 0.00 46 1017.1
20260507184918 27 134 3.2 8.0 0.00 0.00 0.00 48 1017.2
20260507184416 28 1 4.8 6.4 0.00 0.00 0.00 45 1017.1
20260507183913 28 56 1.6 8.0 0.00 0.00 0.00 48 1017.2
20260507183410 28 160 6.4 8.0 0.00 0.00 0.00 45 1017.1
20260507182908 28 10 3.2 14.5 0.00 0.00 0.00 45 1017.2
20260507182403 28 12 4.8 9.7 0.00 0.00 0.00 45 1017.0
20260507181900 28 53 1.6 4.8 0.00 0.00 0.00 46 1017.5
20260507181356 28 56 4.8 9.7 0.00 0.00 0.00 45 1017.4
20260507180853 29 56 3.2 14.5 0.00 0.00 0.00 44 1017.5
20260507180349 29 112 6.4 8.0 0.00 0.00 0.00 45 1017.2
20260507175845 29 30 3.2 6.4 0.00 0.00 0.00 45 1017.6
20260507175342 28 355 3.2 4.8 0.00 0.00 0.00 45 1017.5
20260507174840 28 82 4.8 9.7 0.00 0.00 0.00 46 1017.5
20260507174337 28 7 1.6 8.0 0.00 0.00 0.00 48 1017.5
20260507173834 28 340 3.2 8.0 0.00 0.00 0.00 49 1017.5
20260507173331 28 38 4.8 9.7 0.00 0.00 0.00 47 1017.7
20260507172828 28 132 3.2 6.4 0.00 0.00 0.00 48 1017.8
20260507172325 28 62 6.4 11.3 0.00 0.00 0.00 48 1017.7
20260507171820 28 32 6.4 17.7 0.00 0.00 0.00 47 1017.7
20260507171317 29 166 9.7 14.5 0.00 0.00 0.00 46 1017.6
20260507170814 28 292 0.0 16.1 0.00 0.00 0.00 48 1017.7
20260507170311 27 86 14.5 17.7 0.00 0.00 0.00 49 1017.7
20260507165807 28 75 6.4 14.5 0.00 0.00 0.00 49 1018.0
20260507165306 28 54 20.9 20.9 0.00 0.00 0.00 47 1017.9
20260507164759 28 103 8.0 9.7 0.00 0.00 0.00 48 1017.9
20260507164256 28 340 9.7 12.9 0.00 0.00 0.00 47 1018.0
20260507163753 28 50 8.0 12.9 0.00 0.00 0.00 47 1018.1
20260507163251 28 51 3.2 12.9 0.00 0.00 0.00 50 1018.3
20260507162747 28 43 17.7 17.7 0.00 0.00 0.00 46 1018.3
20260507162243 28 354 4.8 6.4 0.00 0.00 0.00 50 1018.6
20260507161740 28 74 1.6 12.9 0.00 0.00 0.00 49 1018.3
20260507161237 28 69 9.7 16.1 0.00 0.00 0.00 49 1018.3
20260507160732 28 116 6.4 12.9 0.00 0.00 0.00 51 1018.9
20260507160229 28 73 12.9 17.7 0.00 0.00 0.00 49 1018.9
20260507155725 27 359 3.2 12.9 0.00 0.00 0.00 51 1019.0
20260507155221 27 91 4.8 16.1 0.00 0.00 0.00 49 1019.0
20260507154718 27 2 4.8 8.0 0.00 0.00 0.00 50 1019.2
20260507154216 27 84 9.7 20.9 0.00 0.00 0.00 52 1019.1
20260507153712 27 110 8.0 16.1 0.00 0.00 0.00 52 1019.1
20260507153208 27 65 9.7 16.1 0.00 0.00 0.00 51 1019.4
20260507152705 27 70 6.4 25.7 0.00 0.00 0.00 52 1019.2
20260507152201 27 71 6.4 16.1 0.00 0.00 0.00 53 1019.3
20260507151657 27 136 16.1 16.1 0.00 0.00 0.00 53 1019.7
20260507151154 27 65 11.3 22.5 0.00 0.00 0.00 55 1019.9
20260507150651 27 60 6.4 17.7 0.00 0.00 0.00 55 1019.9
20260507150148 26 112 8.0 14.5 0.00 0.00 0.00 58 1019.8
20260507145643 26 99 8.0 20.9 0.00 0.00 0.00 58 1020.0
20260507145141 26 51 3.2 17.7 0.00 0.00 0.00 57 1019.9
20260507144637 27 164 1.6 9.7 0.00 0.00 0.00 57 1020.1
20260507144135 27 103 9.7 20.9 0.00 0.00 0.00 56 1020.2
20260507143631 26 162 3.2 17.7 0.00 0.00 0.00 57 1020.1
20260507143129 26 125 16.1 22.5 0.00 0.00 0.00 57 1020.3
20260507142624 26 39 12.9 20.9 0.00 0.00 0.00 57 1020.4
20260507142121 26 124 4.8 17.7 0.00 0.00 0.00 58 1020.4
20260507141618 26 151 6.4 19.3 0.00 0.00 0.00 57 1020.4
20260507141114 26 53 11.3 22.5 0.00 0.00 0.00 57 1020.5
20260507140611 26 76 4.8 16.1 0.00 0.00 0.00 58 1020.9
20260507140108 26 72 12.9 16.1 0.00 0.00 0.00 59 1020.7
20260507135605 26 75 9.7 20.9 0.00 0.00 0.00 59 1021.0
20260507135103 26 150 9.7 22.5 0.00 0.00 0.00 60 1020.9
20260507134559 26 120 16.1 17.7 0.00 0.00 0.00 60 1021.0
20260507134055 26 72 6.4 19.3 0.00 0.00 0.00 59 1021.1
20260507133551 25 61 12.9 16.1 0.00 0.00 0.00 60 1021.0
20260507133049 25 120 3.2 22.5 0.00 0.00 0.00 62 1021.1
20260507132545 25 85 9.7 22.5 0.00 0.00 0.00 60 1021.1
20260507132042 25 124 9.7 14.5 0.00 0.00 0.00 61 1021.4
20260507131539 25 81 6.4 19.3 0.00 0.00 0.00 61 1021.4
20260507131036 25 81 8.0 16.1 0.00 0.00 0.00 61 1021.6
20260507130533 25 122 14.5 16.1 0.00 0.00 0.00 61 1021.4
20260507130031 25 120 8.0 17.7 0.00 0.00 0.00 61 1021.5
20260507125529 25 38 8.0 17.7 0.00 0.00 0.00 61 1021.4
20260507125026 25 125 12.9 19.3 0.00 0.00 0.00 63 1021.5
20260507124523 25 83 4.8 6.4 0.00 0.00 0.00 68 1021.7
20260507124021 25 73 6.4 9.7 0.00 0.00 0.00 68 1021.4
20260507123519 23 230 3.2 9.7 0.00 0.00 0.00 70 1021.5
20260507123015 24 47 6.4 9.7 0.00 0.00 0.00 69 1021.5
20260507122510 23 34 3.2 11.3 0.00 0.00 0.00 72 1021.6
20260507122006 23 121 9.7 9.7 0.00 0.00 0.00 72 1021.4
20260507121502 22 74 4.8 11.3 0.00 0.00 0.00 74 1021.6
20260507120958 23 112 8.0 8.0 0.00 0.00 0.00 73 1021.6
20260507120454 22 103 4.8 12.9 0.00 0.00 0.00 73 1021.1
20260507115951 22 18 1.6 6.4 0.00 0.00 0.00 74 1021.3
20260507115448 23 120 4.8 6.4 0.00 0.00 0.00 73 1021.5
20260507114943 22 39 4.8 6.4 0.00 0.00 0.00 75 1021.5
20260507114440 22 53 4.8 9.7 0.00 0.00 0.00 75 1021.5
20260507113937 22 139 3.2 6.4 0.00 0.00 0.00 74 1021.5
20260507113434 22 102 3.2 6.4 0.00 0.00 0.00 75 1021.4
20260507112932 22 123 3.2 4.8 0.00 0.00 0.00 76 1021.4
20260507112429 22 146 1.6 4.8 0.00 0.00 0.00 75 1021.4
20260507111926 21 125 4.8 4.8 0.00 0.00 0.00 77 1021.4
20260507111423 21 154 3.2 4.8 0.00 0.00 0.00 77 1021.5
20260507110919 21 107 0.0 4.8 0.00 0.00 0.00 77 1021.4
20260507110415 21 175 1.6 3.2 0.00 0.00 0.00 76 1021.1
20260507105912 21 130 3.2 4.8 0.00 0.00 0.00 77 1021.3
20260507105409 21 134 1.6 3.2 0.00 0.00 0.00 76 1021.2
20260507104906 21 141 3.2 3.2 0.00 0.00 0.00 77 1021.4
20260507104402 21 178 0.0 3.2 0.00 0.00 0.00 77 1021.3
20260507103858 21 115 0.0 3.2 0.00 0.00 0.00 77 1021.3
20260507103355 20 141 0.0 1.6 0.00 0.00 0.00 78 1021.2
20260507102851 20 194 0.0 1.6 0.00 0.00 0.00 80 1021.1
20260507102348 19 89 0.0 1.6 0.00 0.00 0.00 82 1021.1
20260507101844 18 108 0.0 3.2 0.00 0.00 0.00 83 1021.1
20260507101344 17 55 0.0 3.2 0.00 0.00 0.00 89 1021.0
20260507100842 17 4 0.0 1.6 0.00 0.00 0.00 92 1020.9
20260507100340 16 9 0.0 1.6 0.00 0.00 0.00 95 1020.9
20260507095838 16 37 1.6 3.2 0.00 0.00 0.00 96 1020.9
20260507095334 16 334 0.0 3.2 0.00 0.00 0.00 96 1020.7
20260507094831 15 10 0.0 3.2 0.00 0.00 0.00 97 1020.5
20260507094327 15 355 3.2 3.2 0.00 0.00 0.00 97 1020.7
20260507093825 15 30 3.2 3.2 0.00 0.00 0.00 97 1020.9
20260507093324 15 328 3.2 4.8 0.00 0.00 0.00 97 1020.9
20260507092821 15 30 3.2 4.8 0.00 0.00 0.00 96 1020.7
20260507092317 15 334 0.0 3.2 0.00 0.00 0.00 96 1020.4
20260507091813 15 156 0.0 3.2 0.00 0.00 0.00 96 1020.4
20260507091310 15 100 0.0 1.6 0.00 0.00 0.00 97 1020.6
20260507090805 15 50 0.0 3.2 0.00 0.00 0.00 97 1020.6
20260507090302 15 18 0.0 3.2 0.00 0.00 0.00 97 1020.5
20260507085759 15 76 0.0 3.2 0.00 0.00 0.00 96 1020.2
20260507085255 15 130 0.0 0.0 0.00 0.00 0.00 96 1020.3
20260507084753 15 95 1.6 3.2 0.00 0.00 0.00 96 1020.3
20260507084249 15 25 0.0 3.2 0.00 0.00 0.00 96 1020.2
20260507083747 15 120 1.6 3.2 0.00 0.00 0.00 96 1020.2
20260507083243 15 74 1.6 3.2 0.00 0.00 0.00 97 1020.2
20260507082739 15 49 0.0 3.2 0.00 0.00 0.00 97 1020.1
20260507082235 15 38 0.0 1.6 0.00 0.00 0.00 97 1020.0
20260507081732 15 269 0.0 1.6 0.00 0.00 0.00 97 1020.0
20260507081228 15 341 1.6 3.2 0.00 0.00 0.00 97 1020.0
20260507080725 15 74 1.6 3.2 0.00 0.00 0.00 97 1020.0
20260507080221 15 58 1.6 3.2 0.00 0.00 0.00 97 1020.2
20260507075717 15 54 0.0 3.2 0.00 0.00 0.00 97 1020.1
20260507075213 15 91 3.2 3.2 0.00 0.00 0.00 96 1019.9
20260507074709 15 2 1.6 3.2 0.00 0.00 0.00 96 1020.1
20260507074208 15 53 3.2 3.2 0.00 0.00 0.00 96 1020.0
20260507073704 15 44 1.6 1.6 0.00 0.00 0.00 96 1019.8
20260507073200 15 82 0.0 0.0 0.00 0.00 0.00 96 1019.7
20260507072658 15 22 0.0 1.6 0.00 0.00 0.00 96 1020.0
20260507072155 15 38 0.0 1.6 0.00 0.00 0.00 96 1020.1
20260507071653 15 55 0.0 0.0 0.00 0.00 0.00 96 1020.0
20260507071149 15 141 0.0 1.6 0.00 0.00 0.00 96 1020.0
20260507070646 15 50 0.0 0.0 0.00 0.00 0.00 96 1020.0
20260507070143 15 63 0.0 0.0 0.00 0.00 0.00 95 1019.9
20260507065639 15 69 0.0 0.0 0.00 0.00 0.00 95 1019.9
20260507065136 15 62 0.0 0.0 0.00 0.00 0.00 95 1020.2
20260507064634 15 113 0.0 1.6 0.00 0.00 0.00 95 1019.8
20260507064132 15 41 0.0 1.6 0.00 0.00 0.00 95 1020.0
20260507063629 15 55 0.0 1.6 0.00 0.00 0.00 95 1020.1
20260507063126 15 89 0.0 0.0 0.00 0.00 0.00 95 1020.2
20260507062623 15 129 0.0 0.0 0.00 0.00 0.00 95 1020.1
20260507062121 15 50 0.0 1.6 0.00 0.00 0.00 94 1020.1
20260507061618 15 60 0.0 1.6 0.00 0.00 0.00 94 1020.1
20260507061116 16 304 0.0 1.6 0.00 0.00 0.00 95 1020.2
20260507060614 15 315 0.0 3.2 0.00 0.00 0.00 95 1020.2
20260507060110 15 72 0.0 0.0 0.00 0.00 0.00 94 1020.1
20260507055606 15 295 0.0 0.0 0.00 0.00 0.00 94 1020.2
20260507055102 15 37 0.0 1.6 0.00 0.00 0.00 94 1020.2
20260507054558 16 129 0.0 0.0 0.00 0.00 0.00 94 1020.2
20260507054055 16 18 1.6 1.6 0.00 0.00 0.00 94 1020.1
20260507053553 16 55 0.0 0.0 0.00 0.00 0.00 93 1020.2
20260507053052 16 230 0.0 0.0 0.00 0.00 0.00 94 1020.1
20260507052549 16 39 3.2 3.2 0.00 0.00 0.00 94 1020.5
20260507052045 16 18 0.0 3.2 0.00 0.00 0.00 94 1020.3
20260507051543 16 222 0.0 3.2 0.00 0.00 0.00 94 1020.7
20260507051040 16 308 1.6 3.2 0.00 0.00 0.00 95 1020.4
20260507050536 16 42 1.6 1.6 0.00 0.00 0.00 94 1020.7
20260507050033 16 47 0.0 1.6 0.00 0.00 0.00 94 1020.4
20260507045529 16 269 0.0 1.6 0.00 0.00 0.00 94 1020.6
20260507045027 16 38 0.0 0.0 0.00 0.00 0.00 94 1020.7
20260507044524 16 89 0.0 0.0 0.00 0.00 0.00 94 1020.7
20260507044020 16 47 1.6 3.2 0.00 0.00 0.00 94 1020.6
20260507043516 16 53 0.0 1.6 0.00 0.00 0.00 93 1020.7
20260507043014 16 89 0.0 1.6 0.00 0.00 0.00 93 1020.9
20260507042510 16 302 0.0 1.6 0.00 0.00 0.00 93 1020.7
20260507042005 16 315 0.0 0.0 0.00 0.00 0.00 93 1021.0
20260507041502 16 89 0.0 3.2 0.00 0.00 0.00 93 1021.0
20260507040959 16 81 0.0 1.6 0.00 0.00 0.00 93 1021.1
20260507040455 16 97 1.6 1.6 0.00 0.00 0.00 93 1021.1
20260507035951 16 66 0.0 1.6 0.00 0.00 0.00 92 1021.1
20260507035448 16 44 0.0 0.0 0.00 0.00 0.00 92 1021.3
20260507034945 16 142 0.0 0.0 0.00 0.00 0.00 92 1021.1
20260507034441 16 22 0.0 1.6 0.00 0.00 0.00 92 1021.3
20260507033940 16 97 1.6 1.6 0.00 0.00 0.00 91 1021.2
20260507033437 16 50 0.0 1.6 0.00 0.00 0.00 91 1021.4
20260507032934 16 37 0.0 0.0 0.00 0.00 0.00 91 1021.4
20260507032431 16 37 0.0 1.6 0.00 0.00 0.00 91 1021.5
20260507031926 17 109 0.0 0.0 0.00 0.00 0.00 90 1021.5
20260507031426 17 310 0.0 1.6 0.00 0.00 0.00 90 1021.7
20260507030920 17 303 0.0 0.0 0.00 0.00 0.00 90 1021.7
20260507030417 17 62 1.6 3.2 0.00 0.00 0.00 90 1021.6
20260507025914 17 129 0.0 0.0 0.00 0.00 0.00 90 1021.8
20260507025412 17 102 0.0 1.6 0.00 0.00 0.00 89 1021.7
20260507024909 17 38 0.0 1.6 0.00 0.00 0.00 90 1021.7
20260507024407 17 55 0.0 3.2 0.00 0.00 0.00 89 1021.8
20260507023902 17 29 0.0 3.2 0.00 0.00 0.00 89 1021.8
20260507023359 17 111 1.6 3.2 0.00 0.00 0.00 88 1022.0
20260507022857 17 13 0.0 3.2 0.00 0.00 0.00 90 1021.7
20260507022353 17 11 0.0 3.2 0.00 0.00 0.00 90 1021.8
20260507021849 17 302 3.2 3.2 0.00 0.00 0.00 90 1021.6
20260507021344 17 269 0.0 0.0 0.00 0.00 0.00 89 1021.8
20260507020843 17 40 3.2 4.8 0.00 0.00 0.00 89 1022.1
20260507020339 17 269 0.0 1.6 0.00 0.00 0.00 88 1022.2
20260507015836 17 142 0.0 1.6 0.00 0.00 0.00 88 1022.0
20260507015334 17 0 0.0 3.2 0.00 0.00 0.00 88 1021.5
20260507014831 17 311 1.6 4.8 0.00 0.00 0.00 88 1022.0
20260507014327 17 323 0.0 3.2 0.00 0.00 0.00 88 1021.7
20260507013823 17 89 0.0 0.0 0.00 0.00 0.00 87 1022.0
20260507013321 17 309 0.0 0.0 0.00 0.00 0.00 87 1021.7
20260507012818 17 3 3.2 3.2 0.00 0.00 0.00 87 1021.6
20260507012314 17 24 0.0 4.8 0.00 0.00 0.00 87 1021.8
20260507011811 17 44 0.0 1.6 0.00 0.00 0.00 87 1022.0
20260507011308 17 299 0.0 1.6 0.00 0.00 0.00 87 1021.8
20260507010808 17 38 0.0 1.6 0.00 0.00 0.00 87 1022.1
20260507010304 17 50 0.0 0.0 0.00 0.00 0.00 87 1021.8
20260507005801 17 75 0.0 0.0 0.00 0.00 0.00 87 1021.6
20260507005257 17 303 1.6 3.2 0.00 0.00 0.00 87 1021.8
20260507004754 17 37 0.0 0.0 0.00 0.00 0.00 86 1021.7
20260507004252 17 22 0.0 1.6 0.00 0.00 0.00 86 1022.0
20260507003748 17 321 1.6 3.2 0.00 0.00 0.00 85 1021.7
20260507003243 17 273 3.2 3.2 0.00 0.00 0.00 86 1021.7
20260507002739 18 126 0.0 0.0 0.00 0.00 0.00 86 1021.6
20260507002236 17 50 0.0 1.6 0.00 0.00 0.00 86 1022.0
20260507001732 18 50 0.0 0.0 0.00 0.00 0.00 85 1021.6
20260507001230 18 0 1.6 3.2 0.00 0.00 0.00 84 1021.7
20260507000726 18 319 0.0 3.2 0.00 0.00 0.00 84 1021.5
20260507000221 18 217 0.0 0.0 0.00 0.00 0.00 85 1021.8
20260506235719 18 32 0.0 1.6 0.00 0.00 0.00 84 1021.7
20260506235214 18 50 0.0 1.6 0.00 0.00 0.00 83 1021.7
20260506234711 18 310 3.2 3.2 0.00 0.00 0.00 84 1021.4
20260506234209 18 29 0.0 3.2 0.00 0.00 0.00 83 1021.6
20260506233706 18 324 0.0 3.2 0.00 0.00 0.00 83 1021.6
20260506233202 18 309 0.0 1.6 0.00 0.00 0.00 83 1021.6
20260506232659 18 42 0.0 1.6 0.00 0.00 0.00 84 1021.7
20260506232154 18 48 0.0 1.6 0.00 0.00 0.00 83 1021.6
20260506231651 18 0 0.0 3.2 0.00 0.00 0.00 83 1021.6
20260506231150 18 319 0.0 3.2 0.00 0.00 0.00 82 1021.5
20260506230646 18 124 0.0 1.6 0.00 0.00 0.00 82 1021.5
20260506230143 18 326 0.0 1.6 0.00 0.00 0.00 82 1021.6
20260506225640 18 291 0.0 1.6 0.00 0.00 0.00 82 1021.3
20260506225137 18 37 0.0 3.2 0.00 0.00 0.00 81 1021.8
20260506224633 18 217 0.0 0.0 0.00 0.00 0.00 81 1021.4
20260506224130 18 312 3.2 3.2 0.00 0.00 0.00 81 1021.4
20260506223626 19 288 3.2 3.2 0.00 0.00 0.00 80 1021.2
20260506223122 19 89 0.0 1.6 0.00 0.00 0.00 80 1021.3
20260506222619 19 40 1.6 3.2 0.00 0.00 0.00 79 1021.3
20260506222115 20 249 0.0 0.0 0.00 0.00 0.00 79 1021.3
20260506221613 20 89 0.0 1.6 0.00 0.00 0.00 79 1021.2
20260506221111 20 322 0.0 1.6 0.00 0.00 0.00 78 1021.2
20260506220607 20 269 0.0 1.6 0.00 0.00 0.00 78 1021.0
20260506215600 20 293 3.2 3.2 0.00 0.00 0.00 76 1021.0
20260506215055 20 264 0.0 1.6 0.00 0.00 0.00 76 1021.0
20260506214552 20 269 0.0 1.6 0.00 0.00 0.00 77 1021.1
20260506214049 20 269 0.0 1.6 0.00 0.00 0.00 76 1020.7
20260506213547 21 277 0.0 0.0 0.00 0.00 0.00 75 1021.1
20260506213044 21 301 3.2 4.8 0.00 0.00 0.00 74 1020.9
20260506212541 21 297 1.6 3.2 0.00 0.00 0.00 74 1020.7
20260506212036 21 296 1.6 3.2 0.00 0.00 0.00 72 1020.9
20260506211532 22 224 0.0 0.0 0.00 0.00 0.00 70 1021.0
20260506211030 22 37 0.0 0.0 0.00 0.00 0.00 69 1020.9
20260506210526 23 304 0.0 1.6 0.00 0.00 0.00 68 1020.5
20260506210023 23 89 0.0 0.0 0.00 0.00 0.00 64 1020.9
20260506205519 23 101 3.2 3.2 0.00 0.00 0.00 62 1020.7
20260506205015 23 144 0.0 3.2 0.00 0.00 0.00 61 1021.0
20260506204513 24 94 0.0 4.8 0.00 0.00 0.00 60 1020.9
20260506204010 25 135 1.6 8.0 0.00 0.00 0.00 58 1020.5
20260506203508 25 98 1.6 4.8 0.00 0.00 0.00 58 1020.7
20260506203004 25 117 0.0 4.8 0.00 0.00 0.00 57 1020.7
20260506202502 25 129 4.8 6.4 0.00 0.00 0.00 56 1020.7
20260506201957 26 110 3.2 6.4 0.00 0.00 0.00 56 1020.5
20260506201456 26 129 3.2 9.7 0.00 0.00 0.00 56 1020.5
20260506200952 26 117 8.0 11.3 0.00 0.00 0.00 54 1020.6
20260506200448 26 96 3.2 6.4 0.00 0.00 0.00 55 1020.3
20260506195944 26 114 4.8 6.4 0.00 0.00 0.00 54 1020.2
20260506195442 26 128 3.2 9.7 0.00 0.00 0.00 54 1020.4
20260506194938 26 153 3.2 8.0 0.00 0.00 0.00 53 1020.3
20260506194436 26 83 3.2 9.7 0.00 0.00 0.00 53 1020.3
20260506193932 26 126 4.8 14.5 0.00 0.00 0.00 54 1020.3
20260506193429 26 125 3.2 12.9 0.00 0.00 0.00 54 1020.1
20260506192926 26 110 3.2 6.4 0.00 0.00 0.00 56 1020.3
20260506192423 25 139 8.0 9.7 0.00 0.00 0.00 55 1020.1
20260506191920 26 129 4.8 11.3 0.00 0.00 0.00 54 1020.2
20260506191416 26 140 11.3 11.3 0.00 0.00 0.00 53 1020.1
20260506190913 26 119 6.4 9.7 0.00 0.00 0.00 52 1020.0
20260506190409 27 103 16.1 16.1 0.00 0.00 0.00 50 1019.8